#timestamp,LO_Frequency,Hit,StdDev 
1625076015.8,286047001.0,N
1625076035.6,286047000.0,N
1625076055.5,286047000.7,N
1625076075.3,286047000.6,N
1625076095.1,286047000.9,N
1625076115.9,286047000.9,N
1625076135.7,286047000.9,N
1625076155.6,286047001.0,N
1625076175.4,286047000.9,Y
1625076195.2,286047001.1,P
1625076215.1,286047001.2,P
1625076216.0,286047001.2,P
1625076235.8,286047001.2,Y
1625076255.7,286046998.6,P
1625076275.5,286046999.3,N
1625076295.3,286046999.3,N
1625076315.2,286046999.3,N
1625076335.0,286046999.4,N
1625076335.9,286046999.4,N
1625076355.8,286046999.4,N
1625076375.6,286046999.3,N
1625076395.4,286046999.1,N
1625076415.3,286046999.3,N
1625076435.1,286046999.4,N
1625076455.8,286046999.4,N
1625076475.7,286046999.0,N
1625076495.5,286046999.0,N
1625076515.4,286046996.6,Y
1625076535.2,286046998.4,P
1625076555.0,286046999.4,N
1625076555.9,286046999.4,N
1625076575.8,286046998.7,Y
1625076595.6,286046998.1,P
1625076615.5,286046998.1,P
1625076635.3,286046998.2,P
1625076655.1,286046998.3,Y
1625076675.9,286046999.8,P
1625076695.7,286047002.2,P
1625076715.5,286046999.7,N
1625076735.4,286047002.8,N
1625076755.2,286047002.1,N
1625076775.1,286047002.7,N
1625076776.0,286047002.7,N
1625076795.8,286046999.8,N
1625076815.6,286047000.1,N
1625076835.5,286046999.7,N
1625076855.3,286047002.7,N
1625076875.2,286047002.1,N
1625076895.9,286047002.4,N
1625076915.7,286047002.4,N
1625076935.6,286047002.4,N
1625076955.4,286047002.0,N
1625076975.2,286047002.4,N
1625076995.1,286047002.4,N
1625076996.0,286047002.4,N
1625077015.8,286047002.3,N
1625077035.7,286047002.3,N
1625077055.5,286047002.6,N
1625077075.3,286047002.4,N
1625077095.2,286047002.3,N
1625077115.0,286047001.9,N
1625077115.9,286047001.9,N
1625077135.8,286047002.3,N
1625077155.6,286047002.4,N
1625077175.4,286047002.3,N
1625077195.3,286047002.6,N
1625077215.1,286047002.3,N
1625077235.8,286047002.6,N
1625077255.7,286047002.4,N
1625077275.5,286047002.3,N
1625077295.4,286047002.4,Y
1625077315.2,286047001.2,P
1625077335.0,286047001.2,N
1625077335.9,286047001.2,N
1625077355.8,286047000.9,N
1625077375.6,286046998.7,Y
1625077395.5,286046998.3,P
1625077415.3,286046999.4,N
1625077435.1,286046999.0,N
1625077455.9,286046999.3,N
1625077475.7,286046999.4,N
1625077495.5,286046998.9,N
1625077515.4,286046996.5,Y
1625077535.2,286046998.7,P
1625077555.1,286046998.7,P
1625077556.0,286046998.7,P
1625077575.8,286046998.8,Y
1625077595.6,286047000.9,P
1625077615.5,286047000.9,N
1625077635.3,286047001.2,N
1625077655.2,286047000.9,N
1625077675.9,286047000.9,N
1625077695.7,286047000.9,N
1625077715.6,286046998.1,N
1625077735.4,286047000.9,N
1625077755.2,286047000.9,N
1625077775.1,286047000.5,N
1625077776.0,286047000.5,N
1625077795.8,286047000.5,N
1625077815.7,286047000.9,N
1625077835.5,286047000.9,N
1625077855.3,286046998.2,N
1625077875.2,286047001.0,N
1625077895.0,286046998.1,N
1625077895.9,286046998.1,N
1625077915.8,286047000.6,N
1625077935.6,286047001.0,N
1625077955.4,286047000.9,N
1625077975.3,286047000.9,N
1625077995.1,286047000.7,N
1625078015.8,286047001.2,N
1625078035.7,286047001.1,N
1625078055.5,286047001.1,N
1625078075.4,286046998.2,N
1625078095.2,286046998.7,N
1625078115.0,286047001.1,N
1625078115.9,286047001.1,N
1625078135.8,286046998.5,N
1625078155.6,286047000.9,N
1625078175.5,286047000.9,N
1625078195.3,286047000.8,N
1625078215.1,286047001.2,N
1625078235.9,286047000.6,N
1625078255.7,286047001.0,N
1625078275.5,286046998.2,N
1625078295.4,286047000.9,N
1625078315.2,286047000.6,N
1625078335.1,286047001.0,N
1625078336.0,286047001.0,N
1625078355.8,286046998.2,N
1625078375.6,286047001.0,N
1625078395.5,286047001.2,N
1625078415.3,286047000.9,N
1625078435.2,286047001.0,N
1625078455.9,286047001.0,N
1625078475.7,286047000.5,N
1625078495.6,286047001.2,N
1625078515.4,286047000.5,N
1625078535.2,286047000.6,N
1625078555.1,286047000.5,N
1625078556.0,286047000.5,N
1625078575.8,286047000.5,N
1625078595.7,286047000.9,N
1625078615.5,286047001.0,N
1625078635.3,286047000.7,N
1625078655.2,286047000.9,N
1625078675.0,286047001.0,N
1625078675.9,286047001.0,N
1625078695.7,286047000.8,N
1625078715.6,286047001.0,N
1625078735.4,286047000.8,N
1625078755.3,286047000.7,N
1625078775.1,286047001.0,N
1625078776.0,286047001.0,N
1625078795.8,286047000.9,N
1625078815.7,286047000.8,N
1625078835.5,286047000.7,N
1625078855.4,286047000.6,N
1625078875.2,286046998.1,Y
1625078895.0,286046998.1,P
1625078895.9,286046998.1,N
1625078915.8,286047001.2,N
1625078935.6,286046998.5,N
1625078955.4,286046998.2,N
1625078975.3,286047001.1,N
1625078995.1,286047001.2,N
1625079015.9,286046998.5,N
1625079035.7,286046998.3,N
1625079055.5,286046998.7,N
1625079075.4,286046998.9,N
1625079095.2,286046998.9,N
1625079115.0,286046999.3,N
1625079116.0,286046999.3,N
1625079135.8,286046998.9,N
1625079155.6,286046999.2,N
1625079175.5,286046998.9,N
1625079195.3,286046998.6,N
1625079215.1,286046998.3,N
1625079235.9,286046998.2,N
1625079255.7,286046998.5,N
1625079275.6,286046998.2,N
1625079295.4,286046998.8,N
1625079315.2,286046998.1,N
1625079335.1,286046998.1,N
1625079336.0,286046998.1,N
1625079355.8,286046998.1,N
1625079375.6,286046998.5,N
1625079395.5,286046998.2,N
1625079415.3,286046998.5,N
1625079435.2,286046998.6,N
1625079455.9,286046998.3,N
1625079475.7,286047000.7,N
1625079495.6,286046998.3,N
1625079515.4,286046998.4,N
1625079535.3,286046998.2,N
1625079555.1,286046998.2,N
1625079556.0,286046998.2,Y
1625079575.8,286047000.0,P
1625079595.7,286046999.9,N
